Time,TemperatureF,DewpointF,PressureIn,WindDirection,WindDirectionDegrees,WindSpeedMPH,WindSpeedGustMPH,Humidity,HourlyPrecipIn,Conditions,Clouds,dailyrainin,SoftwareType,DateUTC
2013-04-05 00:29:00,41.6,26.6,30.22,NE,45,0.0,1.0,55,0.00,CLR,FEW,0.00,WeatherDisplay:10.37,2013-04-04 23:29:00,
2013-04-05 00:59:00,41.7,28.0,30.22,NE,45,0.0,0.0,58,0.00,CLR,FEW,0.00,WeatherDisplay:10.37,2013-04-04 23:59:00,
2013-04-05 01:29:00,41.7,26.7,30.22,NE,45,0.0,6.0,55,0.00,CLR,FEW,0.00,WeatherDisplay:10.37,2013-04-05 00:29:00,
2013-04-05 01:59:00,41.5,27.0,30.22,NE,45,0.0,4.0,56,0.00,CLR,FEW,0.00,WeatherDisplay:10.37,2013-04-05 00:59:00,
2013-04-05 02:29:00,41.4,27.7,30.21,NE,45,0.0,5.0,58,0.00,CLR,FEW,0.00,WeatherDisplay:10.37,2013-04-05 01:29:00,
2013-04-05 02:59:00,41.0,28.6,30.21,NE,45,0.0,3.0,61,0.00,CLR,FEW,0.00,WeatherDisplay:10.37,2013-04-05 01:59:00,
2013-04-05 03:29:00,40.6,29.0,30.20,NE,45,0.0,6.0,63,0.00,CLR,FEW,0.00,WeatherDisplay:10.37,2013-04-05 02:29:00,
2013-04-05 03:59:00,41.4,30.1,30.21,NE,45,0.0,5.0,64,0.00,CLR,FEW,0.00,WeatherDisplay:10.37,2013-04-05 02:59:00,
2013-04-05 04:29:00,41.1,29.9,30.20,NE,45,0.0,2.0,64,0.00,CLR,FEW,0.00,WeatherDisplay:10.37,2013-04-05 03:29:00,
2013-04-05 04:59:00,40.5,30.0,30.21,NE,45,0.0,4.0,66,0.00,CLR,FEW,0.00,WeatherDisplay:10.37,2013-04-05 03:59:00,
2013-04-05 05:29:00,40.6,30.5,30.21,NE,45,0.0,1.0,67,0.00,CLR,FEW,0.00,WeatherDisplay:10.37,2013-04-05 04:29:00,
2013-04-05 05:59:00,40.8,31.4,30.20,NE,45,0.0,7.0,69,0.00,CLR,FEW,0.00,WeatherDisplay:10.37,2013-04-05 04:59:00,
2013-04-05 06:29:00,40.8,31.8,30.21,NE,45,0.0,8.0,70,0.00,CLR,FEW,0.00,WeatherDisplay:10.37,2013-04-05 05:29:00,
2013-04-05 06:59:00,41.0,32.7,30.21,NE,45,0.0,7.0,72,0.00,CLR,FEW,0.00,WeatherDisplay:10.37,2013-04-05 05:59:00,
2013-04-05 07:29:00,41.0,32.7,30.22,NE,45,0.0,5.0,72,0.00,CLR,FEW,0.00,WeatherDisplay:10.37,2013-04-05 06:29:00,
2013-04-05 07:59:00,41.4,32.3,30.23,NE,45,0.0,4.0,70,0.00,CLR,FEW,0.00,WeatherDisplay:10.37,2013-04-05 06:59:00,
2013-04-05 08:29:00,41.9,33.2,30.24,NE,45,0.0,6.0,71,0.00,CLR,FEW,0.00,WeatherDisplay:10.37,2013-04-05 07:29:00,
2013-04-05 08:59:00,43.0,33.9,30.24,NE,45,0.0,13.0,70,0.00,CLR,FEW,0.00,WeatherDisplay:10.37,2013-04-05 07:59:00,
2013-04-05 09:29:00,42.6,33.2,30.24,NE,45,0.0,6.0,69,0.00,CLR,FEW,0.00,WeatherDisplay:10.37,2013-04-05 08:29:00,
2013-04-05 09:59:00,43.2,32.2,30.24,NE,45,0.0,9.0,65,0.00,CLR,FEW,0.00,WeatherDisplay:10.37,2013-04-05 08:59:00,
2013-04-05 10:29:00,44.6,32.0,30.25,NE,45,0.0,13.0,61,0.00,CLR,FEW,0.00,WeatherDisplay:10.37,2013-04-05 09:29:00,
2013-04-05 10:59:00,45.3,31.8,30.25,NE,45,0.0,10.0,59,0.00,CLR,FEW,0.00,WeatherDisplay:10.37,2013-04-05 09:59:00,
2013-04-05 11:29:00,46.0,31.6,30.25,NE,45,0.0,11.0,57,0.00,CLR,FEW,0.00,WeatherDisplay:10.37,2013-04-05 10:29:00,
2013-04-05 12:29:00,47.4,29.7,30.25,NE,45,0.0,15.0,50,0.00,CLR,FEW,0.00,WeatherDisplay:10.37,2013-04-05 11:29:00,
2013-04-05 12:59:00,47.3,29.6,30.26,NE,45,0.0,8.0,50,0.00,CLR,FEW,0.00,WeatherDisplay:10.37,2013-04-05 11:59:00,
2013-04-05 13:29:00,45.9,27.8,30.26,NE,45,0.0,13.0,49,0.00,CLR,FEW,0.00,WeatherDisplay:10.37,2013-04-05 12:29:00,
2013-04-05 13:59:00,45.8,27.2,30.26,NE,45,0.0,13.0,48,0.00,CLR,FEW,0.00,WeatherDisplay:10.37,2013-04-05 12:59:00,
2013-04-05 14:29:00,45.1,25.6,30.27,NE,45,0.0,17.0,46,0.00,CLR,FEW,0.00,WeatherDisplay:10.37,2013-04-05 13:29:00,
2013-04-05 14:59:00,45.6,25.4,30.27,NE,45,0.0,18.0,45,0.00,CLR,FEW,0.00,WeatherDisplay:10.37,2013-04-05 13:59:00,
2013-04-05 15:29:00,46.0,25.3,30.27,NE,45,0.0,3.0,44,0.00,CLR,FEW,0.00,WeatherDisplay:10.37,2013-04-05 14:29:00,
2013-04-05 15:59:00,46.7,24.2,30.27,NE,45,1.0,14.0,41,0.00,CLR,FEW,0.00,WeatherDisplay:10.37,2013-04-05 14:59:00,
2013-04-05 16:29:00,45.7,23.3,30.27,NE,45,0.0,11.0,41,0.00,CLR,FEW,0.00,WeatherDisplay:10.37,2013-04-05 15:29:00,
2013-04-05 16:59:00,45.9,23.5,30.27,NE,45,0.0,9.0,41,0.00,CLR,FEW,0.00,WeatherDisplay:10.37,2013-04-05 15:59:00,
2013-04-05 17:29:00,45.9,24.0,30.27,NE,45,0.0,11.0,42,0.00,CLR,FEW,0.00,WeatherDisplay:10.37,2013-04-05 16:29:00,
2013-04-05 17:59:00,45.5,23.7,30.27,NE,45,0.0,3.0,42,0.00,CLR,FEW,0.00,WeatherDisplay:10.37,2013-04-05 16:59:00,
2013-04-05 18:29:00,45.5,23.7,30.27,NE,45,0.0,5.0,42,0.00,CLR,FEW,0.00,WeatherDisplay:10.37,2013-04-05 17:29:00,
2013-04-05 18:59:00,44.7,23.5,30.28,NE,45,0.0,6.0,43,0.00,CLR,FEW,0.00,WeatherDisplay:10.37,2013-04-05 17:59:00,
2013-04-05 19:29:00,43.0,23.6,30.28,NE,45,0.0,1.0,46,0.00,CLR,FEW,0.00,WeatherDisplay:10.37,2013-04-05 18:29:00,
2013-04-05 19:59:00,41.6,24.4,30.28,NE,45,0.0,2.0,50,0.00,CLR,FEW,0.00,WeatherDisplay:10.37,2013-04-05 18:59:00,
2013-04-05 20:29:00,40.7,24.9,30.29,NE,45,0.0,1.0,53,0.00,CLR,FEW,0.00,WeatherDisplay:10.37,2013-04-05 19:29:00,
2013-04-05 20:59:00,40.1,24.3,30.29,NE,45,0.0,1.0,53,0.00,CLR,FEW,0.00,WeatherDisplay:10.37,2013-04-05 19:59:00,
2013-04-05 21:30:00,39.6,24.7,30.30,NE,45,0.0,0.0,55,0.00,CLR,FEW,0.00,WeatherDisplay:10.37,2013-04-05 20:30:00,
2013-04-05 21:59:00,39.2,24.8,30.30,NE,45,0.0,0.0,56,0.00,CLR,FEW,0.00,WeatherDisplay:10.37,2013-04-05 20:59:00,
2013-04-05 22:29:00,39.0,25.1,30.31,NE,45,0.0,0.0,57,0.00,CLR,FEW,0.00,WeatherDisplay:10.37,2013-04-05 21:29:00,
2013-04-05 22:59:00,38.8,25.6,30.31,NE,45,0.0,0.0,59,0.00,CLR,FEW,0.00,WeatherDisplay:10.37,2013-04-05 21:59:00,
2013-04-05 23:29:00,38.7,26.4,30.31,NE,45,0.0,0.0,61,0.00,CLR,FEW,0.00,WeatherDisplay:10.37,2013-04-05 22:29:00,